Find Starlink 31602

NORAD ID: 59202 Int'l Des: 2024-046 Owner: SPXS Country: US Constellation: starlink operational
LEOCIRCULAR

Live Position

Loading 3D Globe...

About Starlink 31602

Description loading...

Upcoming Passes

Passes for default location (London). Set your location on the main map for personalized predictions.

Altitude History

Loading altitude history...

Two-Line Element Set

1 59202U 24046B 26121.72529998 .00000954 00000-0 39362-4 0 9992
2 59202 53.1621 268.7002 0001171 96.7848 263.3288 15.34389364121175
Epoch: May 1, 2026 • Age: 12 hours

Current Status

Altitude 474.2 km
Velocity 7.63 km/s
Sub-Earth Point -34.19°S, 70.07°W
Launch Date Mar 11, 2024
Age 2.1 years
Type internet

Technical Details

Classification Payload
Mass 730.00 kg
Dry Mass 700.00 kg
Total Mass 730.00 kg
Length 0.30 m
Diameter 4.10 m
Span 29.00 m
Shape Box + pan
Manufacturer SPXS
Bus Type Starlink V2M
Phase Status In Orbit
Owner/State SPXS/US

Most Searched